TimeCDT,TemperatureF,Dew PointF,Humidity,Sea Level PressureIn,VisibilityMPH,Wind Direction,Wind SpeedMPH,Gust SpeedMPH,PrecipitationIn,Events,Conditions,WindDirDegrees,DateUTC
12:15 AM,37.4,26.6,65,29.97,10.0,North,6.9,-,N/A,,Overcast,350,2013-04-24 05:15:00
12:35 AM,35.6,26.6,70,29.97,10.0,North,9.2,-,N/A,,Overcast,350,2013-04-24 05:35:00
12:55 AM,35.6,26.6,70,29.98,10.0,NNW,8.1,-,N/A,,Overcast,340,2013-04-24 05:55:00
1:15 AM,35.6,26.6,70,29.97,10.0,NNW,10.4,-,N/A,,Overcast,340,2013-04-24 06:15:00
1:35 AM,35.6,26.6,70,29.97,10.0,North,6.9,-,N/A,,Overcast,360,2013-04-24 06:35:00
1:55 AM,35.6,26.6,70,29.97,10.0,NNW,9.2,-,N/A,,Overcast,340,2013-04-24 06:55:00
2:15 AM,35.6,26.6,70,29.97,10.0,NNW,8.1,-,N/A,,Partly Cloudy,340,2013-04-24 07:15:00
2:35 AM,33.8,24.8,70,29.97,10.0,NW,6.9,-,N/A,,Clear,320,2013-04-24 07:35:00
2:55 AM,33.8,24.8,70,29.97,10.0,NW,6.9,-,N/A,,Clear,310,2013-04-24 07:55:00
3:15 AM,33.8,24.8,70,29.97,10.0,NW,6.9,-,N/A,,Clear,320,2013-04-24 08:15:00
3:35 AM,33.8,24.8,70,29.97,10.0,NW,6.9,-,N/A,,Clear,310,2013-04-24 08:35:00
3:55 AM,33.8,24.8,70,29.97,10.0,NW,8.1,-,N/A,,Clear,310,2013-04-24 08:55:00
4:15 AM,33.8,24.8,70,29.97,10.0,NW,6.9,-,N/A,,Clear,310,2013-04-24 09:15:00
4:35 AM,33.8,23.0,65,29.96,10.0,NW,5.8,-,N/A,,Clear,320,2013-04-24 09:35:00
4:55 AM,33.8,24.8,70,29.96,10.0,NW,8.1,-,N/A,,Clear,310,2013-04-24 09:55:00
5:15 AM,33.8,24.8,70,29.97,10.0,WNW,8.1,-,N/A,,Clear,300,2013-04-24 10:15:00
5:35 AM,33.8,24.8,70,29.97,10.0,WNW,8.1,-,N/A,,Clear,300,2013-04-24 10:35:00
5:55 AM,33.8,24.8,70,29.97,10.0,NW,6.9,-,N/A,,Clear,310,2013-04-24 10:55:00
6:15 AM,33.8,24.8,70,29.98,10.0,NW,6.9,-,N/A,,Clear,320,2013-04-24 11:15:00
6:35 AM,33.8,24.8,70,29.98,10.0,NW,5.8,-,N/A,,Clear,310,2013-04-24 11:35:00
6:55 AM,33.8,24.8,70,29.99,10.0,NW,5.8,-,N/A,,Clear,310,2013-04-24 11:55:00
7:15 AM,33.8,24.8,70,29.99,10.0,NW,6.9,-,N/A,,Clear,310,2013-04-24 12:15:00
7:35 AM,35.6,24.8,65,29.99,10.0,NW,8.1,-,N/A,,Clear,320,2013-04-24 12:35:00
7:55 AM,35.6,24.8,65,30.00,10.0,NW,8.1,-,N/A,,Clear,320,2013-04-24 12:55:00
8:15 AM,35.6,23.0,60,30.01,10.0,NNW,5.8,-,N/A,,Clear,330,2013-04-24 13:15:00
8:35 AM,37.4,23.0,56,30.00,10.0,NW,8.1,-,N/A,,Clear,320,2013-04-24 13:35:00
8:55 AM,37.4,23.0,56,30.00,10.0,NW,6.9,-,N/A,,Clear,310,2013-04-24 13:55:00
9:15 AM,39.2,23.0,52,29.99,10.0,NW,10.4,-,N/A,,Clear,320,2013-04-24 14:15:00
9:35 AM,39.2,24.8,56,29.98,10.0,WNW,10.4,-,N/A,,Clear,300,2013-04-24 14:35:00
9:55 AM,39.2,21.2,49,29.99,10.0,NW,10.4,16.1,N/A,,Clear,320,2013-04-24 14:55:00
10:15 AM,42.8,21.2,42,29.99,10.0,WNW,8.1,-,N/A,,Clear,300,2013-04-24 15:15:00
10:35 AM,42.8,21.2,42,29.99,10.0,WNW,12.7,-,N/A,,Clear,290,2013-04-24 15:35:00
10:55 AM,42.8,19.4,39,29.99,10.0,NW,13.8,19.6,N/A,,Clear,310,2013-04-24 15:55:00
11:15 AM,44.6,21.2,39,29.99,10.0,NNW,12.7,18.4,N/A,,Clear,330,2013-04-24 16:15:00
11:35 AM,44.6,21.2,39,29.98,10.0,WNW,13.8,17.3,N/A,,Partly Cloudy,300,2013-04-24 16:35:00
11:55 AM,44.6,21.2,39,29.97,10.0,WNW,6.9,17.3,N/A,,Partly Cloudy,300,2013-04-24 16:55:00
12:15 PM,46.4,21.2,37,29.97,10.0,NW,10.4,21.9,N/A,,Clear,310,2013-04-24 17:15:00
12:35 PM,46.4,21.2,37,29.96,10.0,NNW,10.4,21.9,N/A,,Partly Cloudy,330,2013-04-24 17:35:00
12:55 PM,46.4,21.2,37,29.96,10.0,WNW,15.0,23.0,N/A,,Partly Cloudy,290,2013-04-24 17:55:00
1:15 PM,46.4,21.2,37,29.96,10.0,West,13.8,20.7,N/A,,Partly Cloudy,270,2013-04-24 18:15:00
1:35 PM,48.2,21.2,34,29.95,10.0,West,10.4,19.6,N/A,,Partly Cloudy,280,2013-04-24 18:35:00
1:55 PM,48.2,21.2,34,29.96,10.0,WNW,12.7,19.6,N/A,,Clear,290,2013-04-24 18:55:00
2:15 PM,48.2,23.0,37,29.95,10.0,WNW,17.3,24.2,N/A,,Clear,300,2013-04-24 19:15:00
2:35 PM,48.2,19.4,32,29.95,10.0,West,13.8,21.9,N/A,,Partly Cloudy,260,2013-04-24 19:35:00
2:55 PM,48.2,21.2,34,29.95,10.0,West,12.7,17.3,N/A,,Partly Cloudy,270,2013-04-24 19:55:00
3:15 PM,48.2,19.4,32,29.95,10.0,WSW,13.8,18.4,N/A,,Scattered Clouds,250,2013-04-24 20:15:00
3:35 PM,51.8,21.2,30,29.95,10.0,West,13.8,-,N/A,,Mostly Cloudy,260,2013-04-24 20:35:00
3:55 PM,51.8,21.2,30,29.95,10.0,West,12.7,23.0,N/A,,Scattered Clouds,270,2013-04-24 20:55:00
4:15 PM,51.8,21.2,30,29.95,10.0,West,13.8,19.6,N/A,,Scattered Clouds,260,2013-04-24 21:15:00
4:35 PM,51.8,19.4,28,29.95,10.0,West,9.2,17.3,N/A,,Partly Cloudy,260,2013-04-24 21:35:00
4:55 PM,51.8,19.4,28,29.95,10.0,West,16.1,20.7,N/A,,Scattered Clouds,270,2013-04-24 21:55:00
5:15 PM,51.8,21.2,30,29.95,10.0,West,16.1,21.9,N/A,,Partly Cloudy,280,2013-04-24 22:15:00
5:35 PM,50.0,19.4,30,29.95,10.0,West,13.8,20.7,N/A,,Scattered Clouds,270,2013-04-24 22:35:00
5:55 PM,50.0,21.2,32,29.96,10.0,West,11.5,19.6,N/A,,Mostly Cloudy,260,2013-04-24 22:55:00
6:15 PM,50.0,21.2,32,29.96,10.0,West,10.4,18.4,N/A,,Overcast,260,2013-04-24 23:15:00
6:35 PM,50.0,23.0,35,29.96,10.0,West,11.5,-,N/A,,Mostly Cloudy,260,2013-04-24 23:35:00
6:55 PM,50.0,21.2,32,29.96,10.0,WSW,13.8,-,N/A,,Scattered Clouds,250,2013-04-24 23:55:00
7:15 PM,48.2,21.2,34,29.96,10.0,WSW,8.1,17.3,N/A,,Partly Cloudy,250,2013-04-25 00:15:00
7:35 PM,48.2,21.2,34,29.96,10.0,WSW,5.8,-,N/A,,Clear,250,2013-04-25 00:35:00
7:55 PM,46.4,21.2,37,29.97,10.0,SW,4.6,-,N/A,,Clear,230,2013-04-25 00:55:00
8:15 PM,46.4,21.2,37,29.98,10.0,SW,4.6,-,N/A,,Clear,220,2013-04-25 01:15:00
8:35 PM,46.4,21.2,37,29.98,10.0,SSW,3.5,-,N/A,,Clear,210,2013-04-25 01:35:00
8:55 PM,44.6,21.2,39,29.98,10.0,Calm,Calm,-,N/A,,Partly Cloudy,0,2013-04-25 01:55:00
9:55 PM,39.2,30.2,70,29.99,10.0,South,6.9,-,N/A,,Clear,170,2013-04-25 02:55:00
10:15 PM,39.2,30.2,70,29.99,10.0,South,6.9,-,N/A,,Scattered Clouds,170,2013-04-25 03:15:00
10:35 PM,39.2,30.2,70,29.99,10.0,South,6.9,-,N/A,,Mostly Cloudy,180,2013-04-25 03:35:00
10:55 PM,39.2,30.2,70,29.98,10.0,South,6.9,-,N/A,,Mostly Cloudy,180,2013-04-25 03:55:00
11:35 PM,39.2,28.4,65,29.97,10.0,South,8.1,-,N/A,,Mostly Cloudy,180,2013-04-25 04:35:00
11:55 PM,42.8,26.6,53,29.97,10.0,South,8.1,-,N/A,,Scattered Clouds,180,2013-04-25 04:55:00